Regional Weather Roundup
Issued by NWS Northern Indiana

Current Version | Previous Version | Text Only | Print | Product List | Glossary On
Versions: 1 2 3 4 5 6 7 8 9 10 11 12 13 14 15 16 17 18 19 20 21 22 23 24 25 26 27 28 29 30 31 32 33 34 35 36 37 38 39 40 41 42 43 44 45 46 47 48 49 50
000
ASUS43 KIWX 290500
RWRIWX

KIWX WEATHER ROUNDUP
NATIONAL WEATHER SERVICE NORTHERN INDIANA
100 AM EDT FRI APR 29 2016

NOTE: "FAIR" INDICATES FEW OR NO CLOUDS BELOW 12,000 FEET WITH NO
SIGNIFICANT WEATHER AND/OR OBSTRUCTIONS TO VISIBILITY.

* THESE STATIONS ARE NOT UNDER NWS QUALITY CONTROL. THEY ALSO MAY NOT
  REPORT WEATHER SUCH AS PRECIPITATION OR FOG.

INZ001>027-290600-
NORTHERN INDIANA

CITY           SKY/WX    TMP DP  RH WIND       PRES   REMARKS
SOUTH BEND     CLOUDY    48  40  73 E8        30.00S
GOSHEN         CLOUDY    46  37  71 E6        30.00S
ANGOLA*        CLOUDY    45  30  57 E3        30.00S
FORT WAYNE     CLOUDY    47  39  74 E5        30.01R

$$
INZ028>050-290600-
CENTRAL INDIANA

CITY           SKY/WX    TMP DP  RH WIND       PRES   REMARKS
LAFAYETTE      CLOUDY    55  52  89 S3        29.98R
KOKOMO*        CLOUDY    50  46  87 E7        29.98S
MUNCIE*        CLOUDY    50  46  86 E8        29.98S FOG
INDIANAPOLIS   PTCLDY    57  52  83 W7        29.96S

$$
MIZ043>046-050>051-056>058-064>065-071>073-077>080-290600-
SOUTHWEST LOWER MICHIGAN

CITY           SKY/WX    TMP DP  RH WIND       PRES   REMARKS
BATTLE CREEK   CLOUDY    45  38  76 NE7       30.02S
BENTON HARBOR  CLOUDY    47  39  74 E8        30.00S
COLDWATER*     CLOUDY    46  37  73 E5        30.00F
HILLSDALE*     CLOUDY    45  33  63 CALM      30.00R
HOLLAND        LGT RAIN  44  38  79 E8        30.03R
GRAND RAPIDS   CLOUDY    42  36  79 E8        30.03F
KALAMAZOO      CLOUDY    47  34  60 E3        30.01S
STURGIS*       CLOUDY    45  35  67 E8        30.00R
THREE RIVERS*  CLOUDY    46  38  74 E5        30.01S

$$
OHZ001>008-015>018-024>025-290600-
NORTHWEST OHIO

CITY           SKY/WX    TMP DP  RH WIND       PRES   REMARKS
DEFIANCE       CLOUDY    48  36  63 NE5       30.00S
FINDLAY        CLOUDY    47  41  80 NE9       29.96F
TOLEDO EXPRESS LGT RAIN  46  37  71 E10       29.99S
TOLEDO METCALF CLOUDY    47  37  68 NE12      30.00S
LIMA           CLOUDY    45  44  97 N5        29.97S FOG

$$
AND FOR LAKE MICHIGAN COASTAL AND OPEN LAKE BUOY OBSERVATIONS

STATION/POSITION TEMP    WIND        PRES    VSBY  WAVE
                 AIR SEA DIR/SP/G                  HT/PER
                 (F)     (DEG/KT/KT) (MB)    (MI)  (FT/S)
CALUMET HARBOR    44     340/  9/ 11 1015.4F
MICHIGAN CITY     45     210/  7/  7   N/A
BURNS HARBOR      44     310/  5/  7 1016.3S
SAINT JOSEPH      47      40/  2/  5 1016.6S
SOUTH LAKE BUOY   41 40   80/ 10/ 12 1016.5          2/ 4
4 MI NW BRIDGMAN  49 47  110/ 10/ 12   N/A           2/ 4

$$
&&




USA.gov is the U.S. government's official web portal to all federal, state and local government web resources and services.